| time (UTC) | temp F | wind direction | speed knots | gust knots | rain 1hr in | rain 24hr in | rain mn in | humidity % | barometer mb |
| 20260507061532 | 52 | 280 | 1.7 | 3.5 | 0.02 | 0.21 | 0.02 | 86 | 1008.6 |
| 20260507060030 | 52 | 280 | 1.7 | 3.5 | 0.01 | 0.20 | 0.01 | 85 | 1008.8 |
| 20260507054536 | 53 | 276 | 2.6 | 7.8 | 0.01 | 0.20 | 0.01 | 85 | 1008.4 |
| 20260507053041 | 54 | 292 | 0.9 | 7.0 | 0.00 | 0.19 | 0.00 | 84 | 1008.2 |
| 20260507051535 | 54 | 314 | 1.7 | 7.0 | 0.00 | 0.19 | 0.00 | 85 | 1008.3 |
| 20260507050033 | 54 | 311 | 2.6 | 7.8 | 0.00 | 0.19 | 0.00 | 87 | 1008.3 |
| 20260507044535 | 54 | 291 | 0.9 | 6.1 | 0.00 | 0.19 | 0.00 | 88 | 1008.3 |
| 20260507043037 | 54 | 328 | 2.6 | 6.1 | 0.00 | 0.19 | 0.00 | 88 | 1008.4 |
| 20260507041533 | 55 | 289 | 1.7 | 3.5 | 0.00 | 0.19 | 0.00 | 89 | 1008.7 |
| 20260507040035 | 55 | 318 | 0.9 | 6.1 | 0.00 | 0.19 | 0.00 | 89 | 1008.5 |
| 20260507034530 | 55 | 338 | 0.9 | 4.3 | 0.00 | 0.19 | 0.19 | 90 | 1008.3 |
| 20260507033036 | 55 | 275 | 2.6 | 5.2 | 0.00 | 0.19 | 0.19 | 90 | 1008.2 |
| 20260507031535 | 55 | 315 | 0.9 | 6.1 | 0.00 | 0.19 | 0.19 | 90 | 1007.9 |
| 20260507030035 | 56 | 298 | 0.9 | 3.5 | 0.02 | 0.19 | 0.19 | 90 | 1008.4 |
| 20260507024535 | 56 | 308 | 0.9 | 5.2 | 0.10 | 0.19 | 0.19 | 90 | 1008.6 |
| 20260507023033 | 57 | 302 | 1.7 | 5.2 | 0.10 | 0.19 | 0.19 | 90 | 1008.6 |
| 20260507021532 | 58 | 341 | 1.7 | 7.0 | 0.10 | 0.19 | 0.19 | 90 | 1008.4 |
| 20260507020035 | 59 | 0 | 0.9 | 4.3 | 0.08 | 0.17 | 0.17 | 91 | 1008.3 |
| 20260507014535 | 58 | 0 | 0.0 | 0.0 | 0.00 | 0.09 | 0.09 | 91 | 1007.6 |
| 20260507013038 | 58 | 0 | 0.0 | 0.0 | 0.00 | 0.09 | 0.09 | 91 | 1007.7 |
| 20260507011539 | 58 | 0 | 0.0 | 0.0 | 0.00 | 0.09 | 0.09 | 91 | 1007.5 |
| 20260507010031 | 58 | 0 | 0.0 | 0.0 | 0.00 | 0.09 | 0.09 | 91 | 1007.4 |
| 20260507004530 | 58 | 0 | 0.0 | 0.0 | 0.00 | 0.09 | 0.09 | 91 | 1007.3 |
| 20260507003035 | 59 | 0 | 0.0 | 0.0 | 0.00 | 0.09 | 0.09 | 91 | 1007.2 |
| 20260507001546 | 59 | 0 | 0.0 | 1.7 | 0.00 | 0.09 | 0.09 | 91 | 1007.2 |
| 20260507000038 | 59 | 0 | 0.0 | 0.0 | 0.00 | 0.09 | 0.09 | 91 | 1007.2 |
| 20260506234541 | 60 | 0 | 0.0 | 0.0 | 0.00 | 0.09 | 0.09 | 91 | 1006.9 |
| 20260506233035 | 60 | 0 | 0.0 | 1.7 | 0.00 | 0.09 | 0.09 | 91 | 1007.2 |
| 20260506231537 | 59 | 0 | 0.0 | 0.0 | 0.00 | 0.09 | 0.09 | 91 | 1007.2 |
| 20260506230035 | 59 | 0 | 0.0 | 0.0 | 0.00 | 0.09 | 0.09 | 91 | 1007.1 |
| 20260506224534 | 59 | 0 | 0.0 | 0.0 | 0.00 | 0.09 | 0.09 | 91 | 1006.9 |
| 20260506223031 | 59 | 0 | 0.0 | 0.0 | 0.00 | 0.09 | 0.09 | 91 | 1006.9 |
| 20260506221530 | 59 | 0 | 0.0 | 0.0 | 0.00 | 0.09 | 0.09 | 91 | 1006.8 |
| 20260506220030 | 59 | 0 | 0.0 | 0.0 | 0.00 | 0.09 | 0.09 | 91 | 1006.7 |
| 20260506214535 | 59 | 0 | 0.0 | 0.0 | 0.00 | 0.09 | 0.09 | 90 | 1006.7 |
| 20260506213034 | 59 | 153 | 0.0 | 3.5 | 0.00 | 0.09 | 0.09 | 90 | 1006.5 |
| 20260506211536 | 59 | 0 | 0.9 | 4.3 | 0.00 | 0.09 | 0.09 | 90 | 1006.7 |
| 20260506210035 | 59 | 141 | 0.9 | 4.3 | 0.01 | 0.09 | 0.09 | 90 | 1006.4 |
| 20260506204536 | 59 | 116 | 0.9 | 3.5 | 0.02 | 0.09 | 0.09 | 90 | 1006.2 |
| 20260506203057 | 60 | 201 | 0.9 | 7.0 | 0.02 | 0.09 | 0.09 | 89 | 1006.3 |
| 20260506201534 | 60 | 251 | 2.6 | 7.0 | 0.03 | 0.09 | 0.09 | 90 | 1006.6 |
| 20260506200044 | 58 | 242 | 1.7 | 6.1 | 0.02 | 0.08 | 0.08 | 90 | 1006.8 |
| 20260506194532 | 58 | 111 | 0.0 | 3.5 | 0.01 | 0.07 | 0.07 | 89 | 1007.1 |
| 20260506193030 | 58 | 0 | 0.9 | 3.5 | 0.01 | 0.07 | 0.07 | 89 | 1007.3 |
| 20260506191535 | 59 | 159 | 1.7 | 4.3 | 0.00 | 0.06 | 0.06 | 88 | 1007.2 |
| 20260506190044 | 59 | 102 | 0.9 | 7.8 | 0.01 | 0.06 | 0.06 | 88 | 1007.1 |
| 20260506184533 | 59 | 133 | 0.9 | 4.3 | 0.01 | 0.06 | 0.06 | 88 | 1007.3 |
| 20260506183036 | 59 | 126 | 1.7 | 4.3 | 0.03 | 0.06 | 0.06 | 88 | 1007.4 |
| 20260506181534 | 59 | 229 | 0.9 | 7.0 | 0.03 | 0.06 | 0.06 | 89 | 1007.7 |
| 20260506180036 | 59 | 229 | 1.7 | 4.3 | 0.03 | 0.05 | 0.05 | 88 | 1007.9 |
| 20260506174534 | 58 | 216 | 2.6 | 7.8 | 0.04 | 0.05 | 0.05 | 87 | 1007.7 |
| 20260506173037 | 59 | 209 | 0.9 | 5.2 | 0.03 | 0.03 | 0.03 | 87 | 1007.7 |
| 20260506171535 | 59 | 154 | 0.9 | 7.0 | 0.03 | 0.03 | 0.03 | 86 | 1008.1 |
| 20260506170032 | 59 | 169 | 2.6 | 7.8 | 0.02 | 0.02 | 0.02 | 85 | 1008.4 |
| 20260506164538 | 59 | 155 | 0.9 | 6.1 | 0.01 | 0.01 | 0.01 | 83 | 1008.5 |
| 20260506163053 | 61 | 149 | 2.6 | 7.0 | 0.00 | 0.00 | 0.00 | 79 | 1009.0 |
| 20260506161530 | 62 | 165 | 1.7 | 9.6 | 0.00 | 0.00 | 0.00 | 76 | 1009.5 |
| 20260506160030 | 62 | 122 | 2.6 | 7.8 | 0.00 | 0.00 | 0.00 | 76 | 1009.0 |
| 20260506154541 | 62 | 153 | 2.6 | 6.1 | 0.00 | 0.00 | 0.00 | 75 | 1009.2 |
| 20260506153034 | 64 | 171 | 0.9 | 5.2 | 0.00 | 0.00 | 0.00 | 73 | 1009.4 |
| 20260506151540 | 65 | 159 | 0.9 | 6.1 | 0.00 | 0.00 | 0.00 | 71 | 1009.5 |
| 20260506150038 | 66 | 147 | 1.7 | 6.1 | 0.00 | 0.00 | 0.00 | 69 | 1009.4 |
| 20260506144530 | 65 | 266 | 1.7 | 6.1 | 0.00 | 0.00 | 0.00 | 71 | 1009.2 |
| 20260506143034 | 64 | 128 | 2.6 | 7.8 | 0.00 | 0.00 | 0.00 | 71 | 1009.3 |
| 20260506141533 | 64 | 226 | 3.5 | 8.7 | 0.00 | 0.00 | 0.00 | 72 | 1009.3 |
| 20260506140036 | 64 | 163 | 3.5 | 8.7 | 0.00 | 0.00 | 0.00 | 71 | 1009.5 |
| 20260506134532 | 65 | 123 | 2.6 | 9.6 | 0.00 | 0.00 | 0.00 | 72 | 1009.3 |
| 20260506133029 | 64 | 221 | 1.7 | 8.7 | 0.00 | 0.00 | 0.00 | 75 | 1009.6 |
| 20260506131537 | 63 | 192 | 2.6 | 7.0 | 0.00 | 0.00 | 0.00 | 75 | 1009.4 |
| 20260506130038 | 62 | 198 | 1.7 | 7.8 | 0.00 | 0.00 | 0.00 | 77 | 1009.3 |
| 20260506124534 | 62 | 109 | 0.9 | 4.3 | 0.00 | 0.00 | 0.00 | 77 | 1009.2 |
| 20260506123034 | 62 | 171 | 1.7 | 4.3 | 0.00 | 0.00 | 0.00 | 77 | 1009.4 |
| 20260506121530 | 62 | 178 | 0.9 | 5.2 | 0.00 | 0.00 | 0.00 | 77 | 1009.7 |
| 20260506120039 | 61 | 248 | 2.6 | 6.1 | 0.00 | 0.00 | 0.00 | 79 | 1010.0 |
| 20260506114535 | 60 | 115 | 0.9 | 3.5 | 0.00 | 0.00 | 0.00 | 81 | 1010.0 |
| 20260506113035 | 59 | 184 | 0.0 | 4.3 | 0.00 | 0.00 | 0.00 | 85 | 1010.0 |
| 20260506111535 | 57 | 0 | 0.0 | 1.7 | 0.00 | 0.00 | 0.00 | 87 | 1009.8 |
| 20260506110032 | 56 | 134 | 0.0 | 3.5 | 0.00 | 0.00 | 0.00 | 87 | 1009.9 |
| 20260506104532 | 56 | 231 | 1.7 | 5.2 | 0.00 | 0.00 | 0.00 | 87 | 1009.9 |
| 20260506103034 | 56 | 0 | 0.0 | 4.3 | 0.00 | 0.00 | 0.00 | 87 | 1009.7 |
| 20260506101534 | 55 | 165 | 0.9 | 5.2 | 0.00 | 0.00 | 0.00 | 87 | 1009.5 |
| 20260506100037 | 55 | 150 | 0.9 | 3.5 | 0.00 | 0.00 | 0.00 | 87 | 1009.7 |
| 20260506094532 | 55 | 0 | 0.0 | 2.6 | 0.00 | 0.00 | 0.00 | 86 | 1009.6 |
| 20260506093033 | 55 | 186 | 0.9 | 6.1 | 0.00 | 0.00 | 0.00 | 86 | 1009.5 |
| 20260506091535 | 56 | 184 | 0.9 | 4.3 | 0.00 | 0.00 | 0.00 | 86 | 1009.6 |
| 20260506090030 | 56 | 161 | 0.9 | 2.6 | 0.00 | 0.00 | 0.00 | 86 | 1009.4 |
| 20260506084537 | 56 | 148 | 0.9 | 4.3 | 0.00 | 0.00 | 0.00 | 86 | 1009.8 |
| 20260506083035 | 56 | 0 | 0.9 | 4.3 | 0.00 | 0.00 | 0.00 | 85 | 1009.8 |
| 20260506081540 | 56 | 0 | 0.9 | 3.5 | 0.00 | 0.00 | 0.00 | 85 | 1009.9 |
| 20260506073034 | 56 | 200 | 0.9 | 4.3 | 0.00 | 0.00 | 0.00 | 84 | 1009.9 |
| 20260506071535 | 56 | 0 | 1.7 | 6.1 | 0.00 | 0.00 | 0.00 | 84 | 1010.2 |